Wind_Speed
4 2 2 1 4 5 2 3 4 9 4 4 5 1 5 3 2 3 5 13 27 27 24 22 17 15 16 17 17 18 20 21 21 21 19 17 14 13 11 9 7 6 5 7 7 7 8 8 7
4 3 1 2 4 3 1 3 5 3 5 4 5 4 3 2 3 7 14 17 27 28 26 21 15 14 15 16 17 17 16 17 18 17 16 14 12 12 10 9 8 8 8 7 8 7 8 8 8
4 2 2 4 3 3 3 2 3 7 8 1 3 4 2 3 3 14 8 27 27 26 23 21 23 18 15 17 16 17 16 15 15 14 14 12 11 11 10 10 10 9 8 8 7 8 8 7 7
3 2 4 4 3 1 3 3 3 6 4 4 4 5 3 4 10 9 23 30 28 25 23 23 21 19 16 16 15 16 15 15 14 15 14 13 11 11 11 11 9 8 8 6 5 6 6 6 7
4 3 4 3 2 1 3 2 2 1 3 4 2 2 3 4 7 21 27 30 28 24 22 22 21 18 16 15 15 16 15 15 15 14 14 13 11 11 10 9 9 8 8 6 6 5 4 5 5
4 2 4 2 2 1 4 4 4 0 1 2 4 4 2 8 19 24 28 27 26 25 20 18 18 17 16 14 14 14 14 12 12 13 12 12 12 10 10 9 7 6 5 6 6 6 6 5 5
3 3 1 1 2 5 2 1 2 2 4 2 8 5 1 4 18 23 25 25 25 23 20 17 17 16 14 13 12 13 13 9 7 6 10 11 10 10 10 8 7 6 5 5 5 6 4 5 4
4 3 2 1 3 4 1 1 2 4 2 2 5 5 5 8 20 22 23 23 22 21 20 19 17 17 14 12 12 13 13 14 13 11 9 9 9 9 8 7 6 6 4 4 4 4 4 4 2
2 4 0 2 3 3 3 1 2 2 3 2 2 5 7 26 23 21 22 20 20 20 20 19 18 16 15 14 13 12 13 14 14 11 12 10 10 9 7 6 5 4 4 4 2 5 4 4 4
3 2 5 3 4 4 5 4 1 2 2 2 1 6 26 27 24 19 17 18 21 22 20 18 17 15 15 15 14 13 14 15 16 14 12 12 11 8 5 7 6 5 3 1 4 6 4 3 3
3 3 3 3 4 7 5 4 3 4 4 6 6 14 18 22 19 19 18 21 28 24 21 20 18 15 15 16 15 13 13 17 18 15 13 12 10 9 7 6 7 5 5 5 10 11 6 6 5
1 5 4 2 6 6 7 4 5 8 5 4 11 17 16 16 15 18 18 22 26 25 24 21 19 17 16 15 14 13 14 18 17 16 14 13 11 8 9 8 7 6 4 6 4 6 6 9 8
3 4 4 7 6 5 5 6 5 8 3 8 12 15 15 14 18 20 23 24 27 26 24 22 21 19 18 16 15 15 15 18 17 14 14 13 8 9 11 9 8 7 8 8 11 10 10 8 7
4 4 5 3 3 4 6 2 1 4 8 11 12 13 13 13 19 16 19 21 26 28 27 23 22 20 19 18 17 16 15 18 16 14 11 11 9 8 8 11 11 9 11 7 9 7 6 8 5
5 4 5 2 2 5 6 4 9 5 12 13 13 12 11 11 16 21 22 23 29 30 28 26 25 23 21 19 17 17 17 18 16 14 11 10 6 7 9 14 13 12 12 8 8 5 5 3 7
4 4 5 3 3 1 7 9 7 9 13 14 13 12 13 14 19 19 22 25 27 29 30 27 26 25 24 21 19 18 18 20 16 15 13 9 6 5 9 15 10 11 13 9 8 5 3 2 5
6 1 2 7 6 3 4 9 4 9 12 14 14 13 14 12 14 22 25 28 28 30 31 29 26 26 27 22 19 19 19 19 17 16 15 11 8 8 10 11 9 10 10 9 10 10 6 3 2
3 5 5 6 3 5 6 17 2 6 10 15 15 13 13 14 17 23 25 29 30 29 30 30 29 28 25 22 20 20 20 20 19 17 17 14 10 9 9 10 11 9 8 9 11 9 8 4 7
2 2 6 17 8 5 8 15 18 9 10 11 11 12 13 16 18 22 23 26 28 30 30 29 29 30 27 26 24 23 24 24 21 20 19 16 13 10 10 8 11 11 8 9 9 7 7 7 6
3 4 9 12 9 7 4 11 9 9 12 18 18 15 16 14 11 16 22 25 27 31 31 31 30 30 28 29 29 23 26 23 21 27 20 18 15 12 12 10 12 11 10 10 12 8 4 5 2
4 5 5 8 8 3 3 7 6 4 6 5 12 13 12 16 15 13 19 25 27 29 32 33 32 33 30 29 27 19 16 14 15 22 26 23 18 16 14 12 12 11 11 11 11 8 5 5 4
5 8 8 7 1 3 3 6 6 5 7 7 9 11 10 14 13 12 18 22 28 31 32 33 32 32 31 30 29 28 23 18 18 21 24 24 20 16 17 16 14 12 12 10 11 9 8 6 3
10 3 4 3 2 3 4 3 8 4 7 8 11 14 13 14 14 14 17 27 30 28 33 32 32 31 32 32 32 30 27 22 21 20 20 20 21 18 20 18 16 14 12 12 11 12 11 9 6
2 1 4 4 3 2 4 4 7 2 7 6 3 11 14 13 16 14 20 22 25 25 26 30 33 32 32 32 32 31 29 25 22 22 20 20 20 19 19 19 20 17 14 13 11 11 9 8 8
4 5 3 4 4 5 1 2 9 12 7 10 12 9 11 12 13 13 14 18 23 26 30 30 33 33 33 33 33 32 30 26 25 25 24 24 22 21 19 18 19 19 18 17 16 15 14 12 13
6 8 6 5 3 5 0 5 6 1 9 10 6 5 5 8 11 15 17 23 27 29 30 31 33 32 35 35 33 33 30 27 27 27 27 25 26 24 20 19 19 19 18 17 18 19 18 18 18
2 3 4 7 3 2 3 7 9 8 10 12 9 3 5 8 13 14 14 24 26 30 33 36 35 33 37 37 34 33 32 29 28 27 28 26 25 25 22 21 21 21 20 19 18 19 19 18 19
5 6 2 3 3 4 5 5 5 6 8 10 12 7 6 8 9 10 14 23 28 33 35 37 38 41 41 37 35 34 33 31 29 28 28 26 24 23 21 20 20 20 20 20 20 21 19 18 17
1 1 5 4 4 5 3 6 7 6 3 8 8 7 8 8 9 10 12 22 25 25 30 34 38 37 35 38 37 33 32 31 30 30 31 27 23 22 18 18 20 22 23 23 23 23 22 20 20
2 3 5 5 4 1 3 7 5 7 7 7 10 8 6 4 8 8 10 16 22 26 28 31 30 26 32 37 37 37 32 30 31 31 32 29 27 22 19 18 18 20 22 22 21 23 24 23 22
Wind_Direction
20 338 342 37 65 64 45 36 46 12 23 349 121 186 154 71 147 208 154 155 156 157 157 152 144 148 143 146 142 138 141 143 146 148 151 153 155 156 157 155 154 137 144 120 112 108 109 108 115
5 64 31 70 77 77 347 22 26 359 336 62 80 119 56 103 90 117 134 161 157 157 156 150 154 153 147 144 143 142 141 145 149 150 152 153 159 156 160 160 158 145 131 123 119 119 109 106 108
17 103 80 86 102 137 138 62 350 326 328 301 108 68 87 152 89 148 164 160 157 157 156 158 161 158 161 149 147 143 144 146 148 151 156 155 163 166 160 158 145 138 132 132 117 112 112 118 125
6 46 33 73 102 217 196 197 343 353 22 53 75 71 73 273 149 171 155 161 159 158 158 164 167 164 163 152 151 151 151 150 157 159 156 159 163 159 152 148 147 146 126 125 117 104 103 118 126
17 62 48 91 136 214 232 229 238 145 354 316 91 75 77 336 147 150 156 163 162 159 165 164 164 163 169 162 158 157 154 153 161 161 155 155 158 157 154 153 143 137 125 135 111 94 108 130 138
31 71 48 354 294 243 254 215 208 308 91 176 83 93 158 145 145 154 159 165 164 163 165 167 163 170 167 164 165 158 153 155 163 156 152 154 165 159 158 152 148 128 121 102 101 101 123 138 148
90 67 172 187 273 321 237 147 284 36 27 277 133 112 8 171 156 160 163 165 165 167 165 166 165 162 163 167 167 167 155 142 140 149 148 165 161 163 163 158 139 126 100 97 108 99 124 145 122
99 91 49 285 194 263 255 145 295 70 339 79 136 168 169 194 164 163 163 166 167 169 171 170 170 165 166 174 180 173 157 155 167 158 159 175 165 170 168 147 131 113 112 105 89 109 135 149 185
104 59 16 239 174 250 137 152 168 199 178 201 223 148 173 160 162 156 156 163 169 175 177 175 177 169 176 177 189 184 168 160 175 176 174 180 167 185 165 131 123 148 188 102 103 139 185 203 234
87 110 224 217 160 188 180 175 247 169 163 227 76 77 135 147 153 153 156 164 175 184 185 183 183 182 184 185 185 179 167 167 174 177 183 181 183 180 150 138 166 187 150 236 205 183 212 184 189
159 208 238 246 184 151 166 207 242 182 222 217 180 143 143 152 160 166 171 178 183 189 190 190 189 190 186 186 187 178 175 176 174 183 182 183 181 163 140 170 180 174 201 215 112 101 110 165 163
275 241 227 276 159 154 169 175 216 192 220 202 154 156 154 160 169 177 178 183 194 195 199 196 196 192 188 190 194 188 184 177 178 176 181 187 176 157 159 184 196 185 170 147 146 122 76 134 148
232 276 206 240 161 184 153 217 212 219 233 124 142 159 168 170 180 187 193 192 198 200 203 200 195 195 191 190 195 189 184 177 180 181 181 181 185 159 168 194 203 200 174 150 119 114 93 117 150
294 260 286 208 220 196 165 199 183 222 142 143 157 174 182 184 185 188 195 195 201 204 205 200 198 194 191 192 193 189 187 177 182 186 181 182 170 178 201 198 190 204 193 177 158 151 119 82 97
321 317 339 217 200 209 129 278 236 160 162 161 179 185 189 195 193 196 201 199 206 211 207 206 203 196 193 193 192 191 188 184 188 188 179 180 186 192 194 197 206 215 218 209 200 183 165 62 73
32 40 10 311 185 216 133 270 283 166 164 177 187 198 201 199 202 208 204 209 209 212 213 209 207 202 198 195 193 194 193 191 192 190 182 190 174 162 175 185 205 203 213 226 213 208 206 24 71
8 359 301 320 211 124 197 271 260 171 174 184 191 202 207 209 206 201 206 209 212 215 214 212 210 205 201 196 197 194 196 194 196 192 188 183 173 172 182 190 209 208 210 219 207 225 240 264 360
322 337 307 259 292 209 224 257 199 182 183 193 194 205 212 212 213 208 204 208 217 219 219 219 213 210 201 199 198 196 201 197 202 198 192 186 180 177 181 192 194 216 224 237 227 231 235 294 333
275 248 280 291 265 267 233 245 261 189 207 212 200 203 216 217 217 208 205 207 204 213 215 215 208 208 204 196 198 196 198 201 206 205 196 195 186 179 186 201 199 203 226 231 238 246 244 290 310
212 296 286 281 271 176 309 265 255 181 212 207 208 208 217 226 202 200 191 196 203 207 213 216 214 209 204 200 200 201 204 207 221 205 200 202 195 189 190 203 219 212 211 219 227 233 242 231 311
246 206 262 236 338 261 0 294 275 254 235 213 220 204 199 202 202 189 188 190 196 200 209 213 213 210 208 206 200 202 202 209 214 211 214 208 202 201 202 207 217 219 220 222 219 229 237 255 253
297 186 248 270 202 247 101 287 290 294 271 228 216 206 184 191 205 193 187 187 193 203 207 215 211 210 210 207 206 204 197 198 208 203 206 211 215 213 210 211 212 227 220 229 224 233 237 253 252
233 33 340 303 185 33 314 49 270 360 304 267 224 217 198 188 194 194 192 193 198 196 202 207 211 210 210 207 209 211 214 216 212 212 210 211 207 215 214 214 218 219 222 227 243 230 246 246 258
262 272 40 56 74 346 250 135 287 293 231 294 251 218 212 186 192 198 197 190 193 194 195 203 207 209 210 207 211 216 217 216 210 212 209 201 207 212 209 213 221 221 228 231 231 238 248 252 250
101 68 324 344 9 226 282 63 244 276 298 250 273 226 213 193 178 182 176 182 185 188 194 200 206 207 213 213 214 216 220 221 218 214 213 211 211 213 212 215 222 226 230 235 238 243 250 258 260
184 160 161 202 213 259 64 239 256 305 300 311 281 252 196 175 185 187 184 185 188 188 193 195 200 202 213 214 215 217 221 220 223 222 220 222 219 217 219 225 229 232 234 238 236 244 251 255 257
205 200 186 108 18 44 249 294 318 328 0 17 24 95 195 204 199 190 184 187 186 187 191 196 201 202 211 215 216 216 220 223 222 224 219 225 225 230 233 237 235 236 238 240 240 242 248 252 255
183 157 67 9 157 244 287 282 241 326 332 355 2 343 268 217 204 196 187 189 191 193 193 197 203 206 212 214 217 218 219 222 223 222 219 221 226 229 235 239 239 243 243 242 246 247 250 250 250
126 220 54 123 139 175 224 263 215 221 296 320 322 323 302 231 199 193 198 191 192 189 190 196 201 201 203 212 217 214 219 221 222 224 222 223 225 232 242 244 238 242 246 246 245 250 251 254 256
217 148 149 134 240 255 160 270 236 196 267 291 294 302 312 273 210 192 178 179 185 189 189 194 195 193 210 210 211 215 216 217 218 220 222 224 225 225 241 252 246 241 241 243 244 247 248 249 252
Height
769 770 770 770 792 799 810 804 787 794 785 780 776 784 790 792 798 815 795 798 800 806 810 813 816 818 820 821 824 826 826 826 828 829 831 832 834 836 837 839 840 841 842 844 845 846 846 846 847
768 769 770 776 805 818 814 795 803 794 785 777 780 785 791 800 792 795 798 799 801 806 809 814 817 818 821 823 825 826 827 828 829 831 833 834 835 836 838 839 841 842 844 846 845 846 846 847 848
768 769 775 792 811 819 811 797 795 787 779 779 784 782 789 798 794 794 796 799 803 807 812 814 814 817 821 824 826 827 828 829 831 832 835 836 837 837 838 840 841 844 846 846 847 848 847 848 848
767 770 778 802 810 803 797 794 791 788 779 777 782 794 791 791 793 794 797 800 804 809 813 815 818 820 821 825 825 827 829 831 831 832 836 837 838 838 839 841 843 845 847 848 847 848 848 849 850
768 773 797 806 807 797 792 789 789 789 785 782 782 798 798 794 794 795 798 801 806 811 815 816 820 822 823 825 826 828 830 831 832 833 836 838 838 840 842 843 844 847 848 848 848 848 849 849 850
779 782 810 815 804 796 789 787 788 785 782 783 788 796 799 796 795 798 800 803 807 811 816 818 821 822 825 826 827 829 832 833 834 837 839 839 839 842 843 844 846 846 848 849 850 849 849 850 851
782 797 807 804 805 798 789 786 786 785 783 784 782 801 801 799 798 800 802 805 808 813 816 820 822 823 825 828 829 830 833 835 835 839 841 842 842 844 844 846 847 846 848 849 849 849 850 851 851
781 795 801 800 809 802 785 786 782 782 787 779 781 799 804 796 799 801 804 807 810 814 816 819 822 823 825 828 830 831 836 835 837 838 841 842 844 845 846 849 848 847 847 847 847 849 850 850 851
777 806 811 798 801 790 785 788 779 776 782 780 780 783 784 791 798 802 805 809 812 815 817 820 823 824 826 825 830 831 837 837 838 840 842 844 845 845 848 850 849 848 847 848 847 846 848 850 850
788 808 795 779 780 787 785 787 784 784 787 785 783 781 784 791 797 802 804 807 810 814 816 819 822 824 826 828 830 831 835 837 839 840 842 844 845 846 848 850 848 848 848 842 847 846 847 849 849
784 796 780 773 771 775 783 788 782 784 792 783 784 787 788 793 797 800 803 806 807 812 815 818 821 824 826 828 830 832 835 838 839 840 843 845 846 846 848 847 847 846 846 845 845 845 846 846 847
787 776 775 768 767 776 782 777 781 780 778 771 777 783 787 792 796 799 801 804 807 810 813 817 821 824 827 829 830 832 834 837 839 841 843 844 846 847 848 847 846 846 846 845 845 845 846 846 848
781 774 769 766 769 772 773 778 779 777 772 773 779 785 787 791 794 796 799 802 805 808 812 816 820 823 826 828 830 832 834 836 839 841 843 844 846 846 848 847 845 845 845 846 846 848 849 849 848
772 772 769 766 770 770 778 779 778 770 771 776 780 784 787 790 792 796 798 801 804 807 810 815 819 822 825 827 830 832 834 836 838 840 842 844 845 846 846 846 845 844 845 846 848 850 851 851 849
772 781 774 770 769 774 773 787 783 769 770 777 780 782 785 788 792 790 794 797 801 804 808 813 818 821 823 826 830 832 835 836 837 839 842 844 845 845 845 845 844 844 845 846 848 850 851 850 850
786 789 805 778 773 770 775 799 770 767 772 778 779 781 783 784 786 790 792 795 798 802 805 811 816 819 823 826 828 831 834 836 837 840 842 844 845 845 844 845 844 843 844 846 849 851 852 850 849
805 815 804 793 774 774 781 789 766 763 769 776 776 777 779 781 784 785 788 791 795 799 803 807 812 815 820 824 828 830 833 836 837 839 841 845 846 847 846 846 845 844 845 847 849 851 853 853 851
815 816 805 805 782 779 785 781 770 769 768 769 772 774 776 777 777 781 785 787 791 796 800 805 810 814 818 823 827 830 833 835 837 839 841 844 846 847 847 846 846 846 846 847 849 851 852 852 851
803 808 811 787 777 782 784 777 760 768 769 769 771 772 771 771 770 776 781 785 787 792 797 801 806 811 816 820 825 827 829 832 834 837 840 842 844 846 847 847 847 847 848 848 849 850 851 852 852
803 809 805 787 774 784 780 780 764 766 761 758 759 763 764 764 769 772 776 780 783 786 791 796 802 807 812 815 820 823 824 828 830 834 838 841 843 844 846 847 847 848 849 850 850 851 851 852 853
804 810 803 800 782 772 777 786 769 754 753 752 751 751 755 757 762 767 770 773 778 782 786 790 796 802 808 813 817 820 824 826 828 831 834 838 840 842 844 846 847 848 849 850 851 851 851 852 854
809 786 787 790 794 812 782 819 783 763 759 754 749 748 751 751 754 759 764 768 771 775 781 786 792 798 804 810 813 816 819 821 823 826 830 834 837 840 843 845 847 848 849 850 852 852 852 853 853
793 773 783 784 793 799 797 812 783 766 762 751 744 740 740 743 747 751 756 759 764 772 776 781 788 794 800 805 809 812 815 819 821 824 827 830 834 838 840 843 845 847 848 850 851 853 853 854 854
768 777 791 804 814 827 800 804 793 771 753 739 735 734 731 737 740 745 751 757 762 768 775 778 783 789 795 800 804 808 811 816 819 821 824 827 831 835 838 840 843 845 847 848 850 852 853 853 854
780 802 833 828 838 835 805 810 790 749 746 739 730 729 727 728 736 741 746 751 757 762 767 773 778 783 789 795 798 802 806 811 815 818 821 825 828 831 835 838 841 843 845 847 848 850 851 853 853
791 799 829 835 842 825 805 809 773 745 736 731 725 722 725 730 731 734 738 743 748 755 761 766 772 778 784 790 793 798 802 806 810 814 817 821 825 829 833 836 838 841 843 845 846 847 849 850 851
780 799 785 824 832 826 812 788 756 742 734 727 727 723 726 728 726 727 733 738 744 749 753 759 766 772 778 783 789 793 798 802 805 810 815 819 822 826 830 832 835 837 840 842 843 844 846 847 848
767 770 800 817 822 827 817 804 794 759 747 736 732 730 725 723 724 725 726 732 737 739 745 752 758 763 768 777 782 787 793 798 802 807 811 815 819 823 826 828 830 833 835 838 840 841 842 843 844
778 783 797 805 815 824 827 808 765 755 742 741 733 725 721 718 718 719 723 726 732 740 744 747 751 757 763 769 777 782 788 794 798 802 807 811 815 819 822 823 826 828 831 833 835 837 838 840 841
756 770 786 808 806 820 818 803 740 745 744 739 731 722 715 713 713 714 717 724 728 733 739 741 749 760 763 764 770 776 781 788 793 797 802 806 810 814 817 820 822 823 826 829 831 833 834 835 837